Regional Weather Roundup
Issued by NWS Sioux Falls, SD

Home | Current Version | Previous Version | Graphics & Text | Print | Product List | Glossary On
Versions: 1 2 3 4 5 6 7 8 9 10 11 12 13 14 15 16 17 18 19 20 21 22 23 24 25 26 27 28 29 30 31 32 33 34 35 36 37 38 39 40 41 42 43 44 45 46 47 48 49 50
000
ASUS43 KFSD 250102
RWRFSD

WEATHER ROUNDUP FOR SE SOUTH DAKOTA/SW MINNESOTA/NW IOWA
NATIONAL WEATHER SERVICE SIOUX FALLS SD
800 PM CDT SAT SEP 24 2016

NOTE: "FAIR" INDICATES FEW OR NO CLOUDS BELOW 12,000 FEET WITH NO
SIGNIFICANT WEATHER AND OR OBSTRUCTIONS TO VISIBILITY.


SDZ038>040-050-052>070-250200-
SOUTHEAST SOUTH DAKOTA

CITY           SKY/WX    TMP DP  RH WIND       PRES   REMARKS
CHAMBERLAIN    CLEAR     68  46  45 SW5       29.88R
HURON          PTCLDY    70  52  52 S8        29.85R
MADISON        CLOUDY    68  68 100 S10       29.90R
MITCHELL       PTCLDY    70  56  61 CALM      29.87R
SIOUX FALLS    CLOUDY    72  68  87 S12       29.90R
WINNER         FAIR      67  41  38 W7        29.90R
YANKTON        CLOUDY    72  70  94 E6        29.87R
$$

MNZ071-072-080-081-089-090-097-098-250200-
SOUTHWEST MINNESOTA

CITY           SKY/WX    TMP DP  RH WIND       PRES   REMARKS
FAIRMONT       LGT RAIN  72  69  90 E7        29.93F
JACKSON        DRIZZLE   70  66  88 SE6       29.95S
LUVERNE        CLOUDY    68  64  88 SE3       29.92S
MARSHALL       CLOUDY    67  65  93 SE12      29.91R
MONTEVIDEO     CLOUDY    66  66 100 S8        29.92S
PIPESTONE      CLOUDY    70  66  88 S6        29.92R
REDWOOD FALLS  LGT RAIN  67  65  93 E7        29.93S
TRACY          CLOUDY    67  67  99 SE5       29.92F
WINDOM         LGT RAIN  70  66  88 SE6       29.94S
WORTHINGTON    LGT RAIN  70  68  93 SE5       29.95R
$$

IAZ001>003-012>014-020>022-031-032-NEZ013-014-SDZ071-250200-
NORTHWEST IOWA

CITY           SKY/WX    TMP DP  RH WIND       PRES   REMARKS
CHEROKEE       MOCLDY    69  67  93 S6        29.92S
DENISON        CLOUDY    70  68  94 S6        29.92R
ESTHERVILLE    MOCLDY    69  69 100 S5        29.94R
LE MARS        CLOUDY    72  70  94 SE8       29.92R
ORANGE CITY    CLOUDY    72  70  94 S6        29.92S
SHELDON        CLOUDY    72  68  88 S6        29.91R
SIOUX CITY     CLOUDY    74  72  93 SE8       29.91R
SPENCER        MOCLDY    69  66  90 SE7       29.93R
STORM LAKE     CLOUDY    66  64  94 SE7       29.93F
$$

ABBREVIATIONS USED IN REMARKS
   TC - TEMPERATURE IN CELSIUS
  WCI - WIND CHILL INDEX
   HX - HEAT INDEX
  VSB - VISIBILITY





USA.gov is the U.S. government's official web portal to all federal, state and local government web resources and services.